Change the Weather History Date:

Tuesday, April 15, 2014

  Actual Average Record
Temperature  
Mean Temperature 45 °F 53 °F  
Max Temperature 67 °F 67 °F 95 °F (2002)
Min Temperature 23 °F 38 °F 16 °F (1983)
Degree Days  
Heating Degree Days 20 13  
Month to date heating degree days 236 223  
Since 1 July heating degree days 5153 4911  
Cooling Degree Days 0 0  
Month to date cooling degree days 4 0  
Year to date cooling degree days 4 0  
Moisture  
Dew Point 21 °F    
Average Humidity 50    
Maximum Humidity 81    
Minimum Humidity 18    
Precipitation  
Precipitation 0.00 in 0.06 in 1.00 in (1976)
Month to date precipitation 0.24 0.78  
Year to date precipitation 0.44 3.12  
Sea Level Pressure  
Sea Level Pressure 30.03 in    
Wind  
Wind Speed 15 mph (SW)    
Max Wind Speed 26 mph    
Max Gust Speed 32 mph    
Visibility 10 miles    
Events      
T = Trace of Precipitation, MM = Missing Value Source: NWS Daily Summary

Daily Weather History Graph

Daily Weather History Graph

Search for Another Location

Airport or City:

Trip Planner

Search our weather history database for the weather conditions in past years. The results will help you decide how hot, cold, wet, or windy it might be!

Date:

Astronomy

Apr. 15, 2014 Rise Set
Actual Time 7:07 AM CDT 8:18 PM CDT
Civil Twilight 6:40 AM CDT 8:46 PM CDT
Nautical Twilight 6:08 AM CDT 9:18 PM CDT
Astronomical Twilight 5:34 AM CDT 9:52 PM CDT
Moon 9:01 PM CDT (4/15) 7:16 AM CDT (4/15)
Length of Visible Light 14h 05m
Length of Day
13h 11m
Full, 100% of the Moon is Illuminated
Apr 15
Full
Apr 22
Last Quarter
Apr 29
New
May 6
First Quarter
May 14
Full

Hourly Weather History & Observations

Time (CDT) Temp. Windchill Dew Point Humidity Pressure Visibility Wind Dir Wind Speed Gust Speed Precip Events Conditions
12:54 AM 26.1 °F 17.6 °F 18.0 °F 71% 30.30 in 10.0 mi West 8.1 mph - N/A   Clear
1:54 AM 26.1 °F 17.6 °F 18.0 °F 71% 30.28 in 10.0 mi West 8.1 mph - N/A   Clear
2:54 AM 26.1 °F 16.8 °F 18.0 °F 71% 30.27 in 10.0 mi WNW 9.2 mph - N/A   Clear
3:54 AM 26.1 °F 17.6 °F 18.0 °F 71% 30.23 in 10.0 mi WNW 8.1 mph - N/A   Clear
4:54 AM 24.1 °F 16.0 °F 18.0 °F 77% 30.22 in 10.0 mi West 6.9 mph - N/A   Clear
5:54 AM 25.0 °F 18.1 °F 18.0 °F 75% 30.22 in 10.0 mi West 5.8 mph - N/A   Clear
6:54 AM 23.0 °F 17.0 °F 18.0 °F 81% 30.21 in 10.0 mi SW 4.6 mph - N/A   Clear
7:54 AM 27.0 °F 19.5 °F 19.9 °F 75% 30.21 in 10.0 mi WSW 6.9 mph - N/A   Clear
8:54 AM 34.0 °F 26.0 °F 21.9 °F 61% 30.19 in 10.0 mi SW 10.4 mph - N/A   Clear
9:54 AM 44.1 °F 36.8 °F 21.0 °F 40% 30.16 in 10.0 mi SW 16.1 mph - N/A   Clear
10:54 AM 48.9 °F - 24.1 °F 38% 30.13 in 10.0 mi SSW 21.9 mph 28.8 mph N/A   Clear
11:54 AM 52.0 °F - 26.1 °F 37% 30.10 in 10.0 mi SSW 23.0 mph 29.9 mph N/A   Clear
12:54 PM 57.0 °F - 27.0 °F 32% 30.05 in 10.0 mi SW 18.4 mph 29.9 mph N/A   Clear
1:54 PM 61.0 °F - 26.1 °F 26% 30.01 in 10.0 mi SSW 23.0 mph 31.1 mph N/A   Clear
2:54 PM 63.0 °F - 21.9 °F 21% 29.96 in 10.0 mi SSW 21.9 mph 31.1 mph N/A   Clear
3:54 PM 66.0 °F - 21.9 °F 19% 29.92 in 10.0 mi SSW 20.7 mph 29.9 mph N/A   Clear
4:54 PM 64.0 °F - 21.9 °F 20% 29.88 in 10.0 mi SSW 20.7 mph 29.9 mph N/A   Clear
5:54 PM 64.9 °F - 21.0 °F 19% 29.84 in 10.0 mi SSW 18.4 mph 27.6 mph N/A   Clear
6:54 PM 64.0 °F - 19.9 °F 18% 29.81 in 10.0 mi SSW 18.4 mph - N/A   Clear
7:54 PM 61.0 °F - 24.1 °F 24% 29.79 in 10.0 mi South 9.2 mph - N/A   Clear
8:54 PM 55.9 °F - 27.0 °F 33% 29.78 in 10.0 mi SSE 11.5 mph - N/A   Clear
9:54 PM 54.0 °F - 23.0 °F 30% 29.76 in 10.0 mi SSE 13.8 mph - N/A   Clear
10:54 PM 52.0 °F - 19.9 °F 28% 29.75 in 10.0 mi SSE 16.1 mph - N/A   Clear
11:54 PM 48.0 °F - 19.9 °F 33% 29.74 in 10.0 mi SSE 16.1 mph - N/A   Clear